{"data":{"norad_id":55770,"intl_designator":"2023-028AF","name":"STARLINK-5557","alt_names":[],"object_type":"PAYLOAD","status":"ACTIVE","operator":null,"country":"US","launch_date":"2023-03-03","launch_site_code":"AFWTR","launch_vehicle":null,"mission":null,"orbit_class":"UNKNOWN","rcs_meters":null,"size_class":null,"mass_kg":null,"dimensions":null,"purposes":["comms"],"wikipedia_slug":null,"has_3d_model":false,"image_url":null,"decayed_at":null,"tle_current":{"epoch":"2026-05-25T03:19:44.825664Z","epoch_age_seconds":73454,"freshness":"FRESH","line1":"1 55770U 23028AF  26145.13871326  .00000108  00000+0  16844-4 0  9993","line2":"2 55770  70.0005  31.7349 0002404 268.2728  91.8156 14.98330353177981","mean_motion":14.98330353,"eccentricity":0.0002404,"inclination_deg":70.0005,"raan_deg":31.7349,"arg_perigee_deg":268.2728,"mean_anomaly_deg":91.8156,"bstar":1.6844e-5,"rev_number":17798,"period_min":96.10697648331,"perigee_km":570.38397321269,"apogee_km":573.72562542981,"semimajor_km":6950.1917993212,"source":"CELESTRAK","updated_at":"2026-05-25T13:38:17.883565Z"}}}